Torna al catalogo

HAWK-2A

AttivoMilitareSSO
NORAD 47505·PAYLOAD·🇺🇸 United States

Lanciato Jan 24, 2021 da Cape Canaveral Space Force Station

Loading…

Prossimi Passaggi (prossime 24 ore)

TLE

AggiornatoSource: Space-Track

Epoca: Sep 13, 2026, 16:05 UTC

1 47505U 21006CW  26256.67029278  .00004911  00000-0  14388-3 0  9994
2 47505  97.2239 299.9679 0004673 238.7988 121.2798 15.35658856313077

Traccia HAWK-2A in tempo reale con AllMySat

Download on the App Store